EST,Max TemperatureF,Mean TemperatureF,Min TemperatureF,Max Dew PointF,MeanDew PointF,Min DewpointF,Max Humidity, Mean Humidity, Min Humidity, Max Sea Level PressureIn, Mean Sea Level PressureIn, Min Sea Level PressureIn, Max VisibilityMiles, Mean VisibilityMiles, Min VisibilityMiles, Max Wind SpeedMPH, Mean Wind SpeedMPH, Max Gust SpeedMPH,PrecipitationIn, CloudCover, Events, WindDirDegrees
2013-1-1,54,52,49,52,49,41,100,86,71,30.13,30.03,29.94,10,5,1,14,6,20,0.06,8,Rain,228
2013-1-2,54,49,44,52,48,39,100,89,77,30.21,30.01,29.89,10,5,1,21,7,28,0.23,8,Rain,32
2013-1-3,44,38,32,40,36,30,100,85,70,30.28,30.21,30.14,8,4,1,9,3,13,0.01,5,Rain,62
2013-1-4,52,40,27,34,29,27,100,71,41,30.35,30.29,30.22,10,5,2,15,3,18,0.00,0,,289
2013-1-5,51,38,25,36,28,23,92,64,36,30.41,30.33,30.28,10,10,7,8,2,13,0.00,0,,262
2013-1-6,48,44,39,47,43,34,100,93,71,30.25,30.15,30.08,10,4,0,7,2,,0.08,7,Fog-Rain,237
2013-1-7,54,43,32,45,36,32,100,73,46,30.43,30.31,30.18,10,7,1,15,4,18,0.00,1,,16
2013-1-8,62,48,33,47,40,32,96,75,53,30.44,30.39,30.35,10,10,6,12,4,14,0.00,5,,46
2013-1-9,72,57,41,55,48,40,100,75,49,30.43,30.39,30.36,10,8,3,8,2,10,0.00,2,,17
2013-1-10,70,59,48,53,49,38,100,76,51,30.49,30.43,30.41,10,8,2,14,5,20,0.00,2,,76
2013-1-11,69,59,49,63,51,36,100,76,51,30.39,30.28,30.17,10,6,0,12,4,15,0.14,7,Fog-Rain,74
2013-1-12,78,65,52,64,58,52,100,80,60,30.18,30.13,30.10,10,4,0,13,3,17,0.00,1,Fog,235
2013-1-13,75,64,53,62,57,53,100,79,58,30.16,30.12,30.07,10,6,0,16,4,21,0.00,0,Fog,202
2013-1-14,76,64,52,62,58,54,100,80,60,30.17,30.13,30.09,10,7,0,15,6,20,0.00,1,Fog,198
2013-1-15,66,60,53,61,56,52,100,89,78,30.17,30.11,30.05,10,4,2,13,5,16,0.00,6,,54
2013-1-16,75,64,53,64,58,54,100,82,64,30.04,29.99,29.95,10,6,0,21,5,25,T,5,Fog,220
2013-1-17,58,49,40,57,52,38,100,93,86,30.09,29.91,29.75,9,3,0,31,8,40,0.55,8,Fog-Rain,35
2013-1-18,51,41,30,37,31,24,100,68,36,30.53,30.37,30.13,10,10,8,20,6,26,T,2,Rain,354
2013-1-19,57,43,28,42,33,26,92,65,38,30.52,30.38,30.19,10,9,4,8,1,10,0.00,1,,215
2013-1-20,63,51,38,42,38,35,93,65,36,30.17,30.09,30.01,10,10,7,15,5,21,0.00,0,,245
2013-1-21,63,47,31,37,34,26,100,70,39,30.08,30.01,29.91,10,9,2,16,5,22,0.00,0,,239
2013-1-22,46,37,27,28,20,12,78,53,27,30.27,30.16,29.99,10,10,5,16,5,22,0.00,0,,322
2013-1-23,43,34,25,28,13,4,81,54,26,30.40,30.28,30.11,10,10,10,13,5,16,0.00,0,,113
2013-1-24,48,38,27,36,22,6,79,54,29,30.52,30.24,30.00,10,9,6,23,12,31,0.00,0,,1
2013-1-25,32,27,21,26,15,6,85,62,39,30.53,30.33,30.15,10,9,4,9,4,13,0.03,5,,38
2013-1-26,45,37,28,33,28,26,92,73,53,30.39,30.22,30.13,10,6,3,15,4,18,0.00,1,,38
2013-1-27,43,34,25,29,26,24,100,79,57,30.59,30.51,30.40,6,3,0,12,4,16,0.00,2,Fog,39
2013-1-28,58,47,36,50,38,28,93,75,56,30.50,30.39,30.27,10,8,3,7,3,10,T,6,,157
2013-1-29,74,57,40,61,48,40,100,79,57,30.27,30.22,30.10,10,3,0,15,5,20,0.00,0,Fog,222
2013-1-30,75,69,62,64,62,61,93,81,68,30.09,29.86,29.51,10,9,6,33,13,44,0.05,6,Rain,190
2013-1-31,69,54,39,63,40,22,93,61,29,30.07,29.78,29.56,10,8,0,33,15,44,0.33,4,Fog-Rain,258